Temp
72 72 72 71 72 72 71 71 71 71 71 71 71 71 71 70 66 69 72 70 75 75 75 75 75 75 75 75 75 75 75 75 75
72 71 71 71 71 71 71 70 70 70 70 70 70 70 69 66 65 67 66 68 76 76 75 74 75 75 75 74 74 74 74 74 74
71 71 70 70 70 70 70 70 69 69 69 69 69 69 68 66 67 66 65 72 75 75 74 74 74 74 73 73 73 74 74 73 73
70 69 69 69 69 69 69 69 69 68 69 69 68 68 67 60 66 69 64 72 75 74 73 73 73 73 73 72 73 73 72 72 73
70 67 67 68 68 68 68 68 68 67 67 68 68 67 67 59 65 64 66 72 74 73 72 72 72 73 72 72 72 71 71 71 71
60 64 65 66 67 67 68 68 69 68 67 67 69 68 62 63 63 62 69 71 72 72 72 72 72 72 71 71 71 71 71 70 70
63 61 65 66 66 66 68 68 69 67 60 59 65 61 61 61 60 61 68 70 71 71 71 71 71 71 70 70 70 70 70 70 69
55 55 57 56 62 59 63 61 61 59 60 60 59 61 60 59 59 64 67 69 70 70 70 70 70 70 70 69 68 68 68 68 68
58 57 57 57 58 58 58 57 59 60 61 59 60 60 59 59 58 61 66 67 68 69 69 69 69 69 69 69 69 69 68 68 68
57 57 57 57 57 57 56 57 58 58 60 61 60 59 59 59 59 55 63 65 66 67 68 68 68 68 68 68 68 68 68 67 67
58 57 57 56 56 56 56 56 56 57 58 59 60 59 58 59 59 56 58 64 65 66 66 66 66 67 67 68 68 67 67 67 67
59 58 56 56 57 57 57 57 57 56 58 56 58 58 58 58 60 60 57 59 63 64 65 65 65 65 66 66 67 67 67 67 66
59 58 56 57 56 56 55 55 54 54 54 54 55 56 57 59 59 60 59 58 58 61 63 63 63 63 64 65 66 66 66 65 66
60 58 57 58 56 55 55 54 53 52 52 55 54 54 54 56 62 59 59 58 58 56 61 61 61 61 63 64 65 65 64 64 65
59 59 58 57 55 54 54 53 54 52 51 58 57 54 54 55 55 56 60 58 57 55 56 53 54 61 64 64 64 63 63 63 64
60 58 58 57 54 53 54 53 53 51 51 49 51 52 54 54 54 53 53 55 56 55 54 52 51 52 61 61 61 61 61 62 63
60 58 56 56 54 54 53 52 50 51 50 46 46 45 49 51 53 52 55 52 53 54 55 53 53 50 49 52 59 57 59 60 62
59 58 55 54 53 51 51 50 50 47 48 49 45 42 40 43 49 50 51 52 50 50 51 53 53 52 49 51 51 55 56 58 60
58 57 55 54 53 52 51 53 49 48 45 48 53 48 45 40 39 46 48 49 51 49 48 49 51 51 49 53 53 54 55 57 59
57 56 54 54 53 52 51 50 49 48 46 45 45 45 45 45 41 37 41 46 47 48 48 48 47 50 49 47 50 53 54 56 58
MSLP
1018.13 1018.21 1018.25 1018.32 1018.35 1018.34 1018.32 1018.34 1018.31 1018.29 1018.23 1018.13 1018.03 1017.83 1017.63 1017.40 1017.14 1017.00 1017.22 1017.35 1017.33 1017.37 1017.40 1017.36 1017.29 1017.25 1017.19 1017.16 1017.12 1016.97 1016.81 1016.71 1016.68
1018.45 1018.54 1018.58 1018.63 1018.68 1018.66 1018.61 1018.60 1018.59 1018.54 1018.48 1018.42 1018.32 1018.15 1017.93 1017.70 1017.48 1017.51 1017.63 1017.69 1017.53 1017.55 1017.67 1017.69 1017.62 1017.53 1017.45 1017.40 1017.29 1017.20 1017.00 1016.85 1016.76
1018.71 1018.83 1018.88 1018.91 1018.94 1018.95 1018.87 1018.86 1018.85 1018.81 1018.73 1018.64 1018.53 1018.33 1018.11 1018.03 1017.66 1018.07 1018.05 1017.91 1017.77 1017.81 1017.93 1017.92 1017.84 1017.82 1017.79 1017.74 1017.67 1017.58 1017.40 1017.26 1017.12
1019.04 1019.15 1019.15 1019.18 1019.20 1019.22 1019.13 1019.10 1019.10 1019.02 1018.91 1018.79 1018.65 1018.45 1018.26 1018.33 1017.91 1018.23 1018.35 1018.16 1017.91 1018.01 1018.14 1018.16 1018.12 1018.06 1018.00 1017.96 1017.87 1017.71 1017.63 1017.60 1017.54
1019.17 1019.48 1019.51 1019.46 1019.46 1019.43 1019.37 1019.27 1019.22 1019.21 1019.12 1018.88 1018.70 1018.57 1018.34 1018.39 1018.45 1018.63 1018.58 1018.44 1018.21 1018.25 1018.33 1018.37 1018.32 1018.20 1018.11 1018.04 1017.99 1017.90 1017.86 1017.88 1017.95
1019.62 1019.69 1019.75 1019.71 1019.64 1019.56 1019.45 1019.27 1019.14 1019.13 1019.13 1018.98 1018.76 1018.66 1018.50 1018.40 1018.79 1018.91 1018.82 1018.73 1018.53 1018.43 1018.49 1018.41 1018.40 1018.32 1018.12 1017.94 1018.05 1018.04 1018.09 1018.13 1018.08
1019.62 1019.77 1019.78 1019.72 1019.66 1019.58 1019.42 1019.29 1019.14 1019.07 1019.14 1019.08 1018.89 1018.92 1018.78 1018.67 1019.06 1019.13 1019.08 1018.98 1018.76 1018.62 1018.60 1018.56 1018.48 1018.35 1018.27 1018.24 1018.21 1018.28 1018.34 1018.37 1018.37
1019.79 1019.88 1019.85 1019.81 1019.58 1019.58 1019.41 1019.40 1019.29 1019.27 1019.26 1019.21 1019.08 1018.99 1019.00 1018.99 1019.16 1019.32 1019.25 1019.27 1019.06 1018.89 1018.73 1018.73 1018.63 1018.51 1018.51 1018.54 1018.59 1018.63 1018.61 1018.58 1018.55
1019.63 1019.78 1019.74 1019.79 1019.74 1019.77 1019.72 1019.70 1019.52 1019.46 1019.31 1019.28 1019.20 1019.15 1019.19 1019.14 1019.35 1019.40 1019.38 1019.46 1019.40 1019.22 1019.01 1018.95 1018.89 1018.90 1018.78 1018.64 1018.69 1018.61 1018.58 1018.55 1018.60
1019.79 1019.86 1019.89 1019.96 1019.92 1020.01 1020.02 1019.95 1019.84 1019.73 1019.52 1019.37 1019.28 1019.29 1019.26 1019.27 1019.38 1019.62 1019.63 1019.64 1019.68 1019.56 1019.43 1019.33 1019.28 1019.19 1019.03 1018.93 1018.81 1018.80 1018.83 1018.76 1018.69
1019.84 1019.99 1020.03 1020.12 1020.09 1020.14 1020.07 1020.03 1020.01 1019.92 1019.71 1019.59 1019.42 1019.43 1019.47 1019.41 1019.39 1019.79 1019.76 1019.77 1019.79 1019.77 1019.73 1019.68 1019.63 1019.52 1019.28 1019.12 1019.05 1019.02 1018.94 1018.87 1018.73
1019.86 1020.04 1020.25 1020.26 1020.14 1020.12 1020.07 1020.05 1020.05 1020.06 1019.82 1019.92 1019.64 1019.58 1019.54 1019.57 1019.47 1019.49 1019.86 1019.90 1019.97 1019.92 1020.00 1020.01 1019.93 1019.80 1019.59 1019.33 1019.14 1018.98 1018.85 1018.75 1018.70
1019.76 1020.02 1020.33 1020.29 1020.25 1020.23 1020.28 1020.33 1020.39 1020.35 1020.21 1020.11 1019.99 1019.88 1019.78 1019.68 1019.62 1019.62 1019.72 1020.02 1020.18 1020.12 1020.11 1020.13 1020.12 1020.06 1019.86 1019.56 1019.27 1019.10 1019.08 1018.89 1018.60
1019.73 1019.99 1020.21 1020.28 1020.37 1020.40 1020.43 1020.52 1020.55 1020.61 1020.57 1020.34 1020.11 1020.11 1020.15 1019.94 1019.71 1019.82 1019.94 1020.04 1020.17 1020.30 1020.30 1020.24 1020.21 1020.13 1019.96 1019.75 1019.49 1019.24 1019.10 1018.83 1018.59
1019.66 1019.88 1020.13 1020.29 1020.48 1020.72 1020.73 1020.78 1020.72 1020.75 1020.80 1020.50 1020.27 1020.00 1020.06 1020.01 1020.09 1020.06 1020.06 1020.19 1020.37 1020.45 1020.47 1020.46 1020.38 1020.17 1019.89 1019.74 1019.54 1019.55 1019.12 1018.76 1018.41
1019.61 1019.87 1020.06 1020.29 1020.66 1020.83 1020.95 1020.99 1020.99 1021.07 1020.90 1020.76 1020.46 1020.33 1020.12 1020.20 1020.32 1020.31 1020.48 1020.53 1020.56 1020.52 1020.44 1020.51 1020.41 1020.31 1020.02 1019.93 1019.79 1019.65 1019.30 1018.84 1018.36
1019.56 1019.84 1020.16 1020.41 1020.73 1020.88 1021.12 1021.27 1021.39 1021.34 1021.22 1021.52 1021.42 1021.13 1021.02 1020.77 1020.61 1020.51 1020.66 1020.65 1020.54 1020.51 1020.42 1020.39 1020.31 1020.30 1020.23 1020.07 1019.77 1019.86 1019.67 1019.24 1018.68
1019.59 1019.83 1020.24 1020.55 1020.74 1021.04 1021.23 1021.39 1021.55 1021.75 1021.67 1021.51 1021.82 1021.87 1022.14 1021.75 1021.03 1020.86 1020.83 1020.82 1020.68 1020.46 1020.30 1020.19 1020.13 1020.06 1020.05 1020.06 1020.08 1019.99 1019.83 1019.37 1018.84
1019.64 1019.88 1020.25 1020.51 1020.75 1021.08 1021.23 1021.38 1021.59 1021.73 1022.00 1021.95 1021.78 1021.99 1022.33 1022.53 1022.44 1021.44 1021.22 1021.01 1020.94 1020.77 1020.48 1020.16 1019.98 1019.87 1019.83 1019.79 1019.92 1019.84 1019.77 1019.35 1018.86
1019.69 1019.95 1020.28 1020.57 1020.84 1021.06 1021.32 1021.48 1021.72 1021.76 1022.06 1022.25 1022.34 1022.35 1022.36 1022.55 1022.95 1022.76 1021.98 1021.48 1021.03 1020.85 1020.53 1020.20 1019.96 1019.75 1019.68 1019.70 1019.75 1019.72 1019.70 1019.35 1018.88
Wind_Speed
12 12 12 12 11 11 11 11 11 12 12 11 11 12 13 14 5 6 11 8 12 13 13 11 11 10 10 10 10 11 11 10 7
12 12 11 11 11 11 11 11 11 11 11 11 11 12 13 8 6 7 7 7 11 9 11 10 9 9 8 8 9 9 9 9 9
11 11 10 10 11 10 10 10 10 10 10 10 10 10 11 8 6 7 7 11 9 10 10 9 11 11 11 11 11 11 10 8 10
11 10 10 10 10 10 10 10 9 9 9 9 9 10 11 6 3 8 4 11 10 9 9 10 10 10 9 10 9 8 7 10 9
9 10 9 9 9 9 9 8 7 4 5 6 7 8 11 5 8 6 6 11 8 9 8 9 10 10 9 7 8 7 9 10 9
7 7 7 6 6 6 6 5 6 5 5 5 6 9 3 5 6 3 12 10 9 8 9 9 9 9 10 6 4 6 8 8 9
6 6 4 3 2 1 2 4 7 6 2 2 2 3 5 3 5 3 11 9 9 9 8 10 10 11 13 12 7 8 7 8 10
3 2 2 3 0 0 5 4 3 4 3 3 4 3 4 3 4 6 11 9 9 8 8 8 10 11 12 11 11 11 10 11 11
3 2 1 3 3 4 3 3 5 6 6 4 4 5 3 3 3 5 10 8 8 8 9 9 9 10 9 9 8 9 10 10 11
2 2 3 3 3 4 4 4 4 5 5 5 4 4 3 4 3 3 8 9 7 7 8 8 8 8 8 8 9 9 10 11 11
3 2 2 3 3 3 2 2 3 3 3 5 5 4 5 4 3 4 4 8 7 6 7 8 9 9 9 8 8 8 9 10 11
4 2 3 2 1 3 4 4 4 4 4 4 4 4 3 4 3 3 4 4 6 6 6 7 7 8 9 9 10 10 10 10 11
2 2 3 1 2 2 3 2 3 4 4 3 3 3 4 3 3 3 4 3 3 3 4 4 5 7 9 10 10 10 11 12 12
2 3 3 1 1 2 2 3 2 2 4 5 1 2 2 3 3 5 4 4 4 2 1 3 2 4 8 10 12 12 13 13 14
2 3 3 2 2 4 3 3 2 2 3 5 3 3 1 1 2 2 3 4 5 4 5 4 3 5 10 13 13 13 14 13 13
3 2 2 2 3 2 2 2 2 3 4 3 4 1 2 1 3 4 4 4 3 2 2 2 2 4 9 11 10 11 12 13 13
3 2 3 4 3 3 4 4 3 2 4 2 1 3 3 4 2 3 2 2 1 3 3 4 4 3 2 5 10 7 12 14 14
3 4 3 4 2 3 2 3 4 2 3 5 3 3 1 3 2 1 2 2 2 2 2 3 3 3 1 4 4 7 11 13 15
4 4 3 3 2 3 2 3 1 3 3 3 3 3 3 1 4 3 3 5 4 3 3 3 4 3 1 2 2 4 9 14 16
5 4 3 3 2 3 4 3 4 2 2 2 2 2 1 1 2 4 5 4 3 4 3 4 2 3 1 1 1 6 11 16 19
Wind_Direction
77 74 68 61 56 53 50 47 44 39 34 29 21 8 353 341 316 28 52 35 52 50 48 46 43 35 32 32 26 25 23 16 2
81 74 68 64 57 50 48 45 42 38 32 26 17 2 350 343 345 45 47 38 30 23 32 27 22 17 18 17 13 10 14 28 36
82 75 70 63 57 52 49 45 42 37 31 24 11 353 343 352 39 58 48 31 21 31 27 21 23 23 19 11 6 2 3 27 33
79 73 68 64 58 50 46 40 38 37 31 20 2 345 336 348 6 69 48 26 27 37 35 25 17 9 4 2 359 352 26 30 15
78 75 64 62 58 50 43 37 31 23 16 13 355 333 316 293 65 49 40 26 24 31 35 23 9 360 353 352 360 41 45 37 22
87 86 75 69 62 54 40 24 350 335 258 283 340 341 351 35 81 60 48 26 19 20 19 14 8 11 355 330 14 29 32 26 17
118 137 138 132 167 271 285 308 334 17 30 290 328 26 353 17 99 72 57 30 24 22 39 29 32 29 35 36 40 42 29 22 12
179 153 199 219 191 51 13 15 18 5 10 11 6 22 15 8 79 80 72 41 30 28 20 21 21 27 36 45 41 32 24 17 12
54 86 44 56 10 17 17 8 7 1 9 359 5 9 18 353 108 106 91 64 37 34 32 29 27 22 15 13 23 19 8 4 358
101 67 60 58 19 22 8 20 0 350 353 345 10 23 5 18 68 109 104 88 56 38 36 32 27 18 11 3 359 353 342 348 348
100 101 56 50 55 348 347 1 351 335 4 342 1 20 24 12 26 149 120 112 94 58 40 33 27 18 14 9 3 356 350 345 345
122 94 75 66 13 358 4 13 2 6 1 356 7 34 11 6 22 70 157 129 105 89 60 34 21 13 6 3 359 352 347 341 339
100 114 91 18 9 30 7 17 9 355 16 339 339 27 18 19 36 46 42 105 119 98 88 53 7 360 352 348 347 344 337 331 327
142 104 116 53 9 27 18 4 47 18 351 319 48 65 47 354 42 53 41 72 46 87 38 353 337 329 350 344 337 339 333 326 323
117 122 109 17 17 38 19 18 335 72 359 317 316 133 172 94 86 54 32 64 49 37 21 353 338 304 321 337 333 336 329 325 320
143 110 112 74 77 56 21 355 9 27 350 3 345 265 167 126 78 57 57 54 49 327 304 355 350 333 350 344 331 331 344 338 334
156 115 92 77 31 68 47 33 348 38 39 38 284 8 339 2 104 93 104 107 347 340 24 355 341 347 352 328 327 352 343 336 333
116 105 100 100 56 89 77 42 54 10 5 63 112 17 345 320 332 32 13 41 292 310 333 328 338 316 2 1 20 351 344 332 332
122 103 98 102 90 80 92 70 53 63 25 17 47 87 137 65 333 333 347 349 348 338 310 311 306 300 192 297 141 351 334 325 325
127 127 121 116 97 86 75 57 46 60 74 68 18 360 330 79 179 271 312 331 306 313 305 281 275 328 299 258 237 341 324 321 320